Regional Weather Roundup
Issued by NWS Midland/Odessa, TX

Home | Current Version | Previous Version | Text Only | Print | Product List | Glossary On
Versions: 1 2 3 4 5 6 7 8 9 10 11 12 13 14 15 16 17 18 19 20 21 22 23 24 25 26 27 28 29 30 31 32 33 34 35 36 37 38 39 40 41 42 43 44 45 46 47 48 49 50
000
ASUS44 KMAF 120110
RWRMAF
MIDLAND AREA WEATHER ROUNDUP
NATIONAL WEATHER SERVICE MIDLAND TX
700 PM CST THU FEB 11 2016

...IN SOUTHWEST TEXAS AND SOUTHEAST NEW MEXICO...

CITY           SKY/WX    TMP DP  RH WIND       PRES   REMARKS
ALPINE         CLEAR     64  19  17 CALM      30.29R
ANDREWS        FAIR      58  26  28 N5        30.19R
ARTESIA        CLEAR     63  21  20 CALM      30.18R
BIG SPRING     CLEAR     60  27  28 NE5       30.18R
CARLSBAD       CLEAR     63  21  20 CALM      30.16R
DRYDEN           N/A     76  20  12 N3        30.11R
FORT STOCKTON  CLEAR     62  23  22 NW3       30.18R
GUAD PASS      CLEAR     60   5  11 W7        30.28R
HOBBS          CLEAR     59  21  23 NE6       30.19R
MARFA          CLEAR     57  12  17 N8        30.27R
MIDLAND AIRPK  CLEAR     64  26  23 NW5       30.17R
MIDLAND INTL   CLEAR     56  27  32 N8        30.17R
ODESSA         CLEAR     61  25  25 N7        30.18R
PECOS          CLEAR     67  22  18 CALM      30.15R
PRESIDIO       FAIR      71  20  14 MISG      30.16R
SEMINOLE       CLEAR     60  26  28 CALM      30.20R
SNYDER           N/A     62  29  29 E3        30.16R
WINK           CLEAR     66  24  20 E6        30.13R
$$
...OTHER STATIONS IN TEXAS...

CITY           SKY/WX    TMP DP  RH WIND       PRES   REMARKS
ABILENE        CLEAR     64  30  27 NW3       30.12R
AMARILLO       CLOUDY    56  21  25 S8        30.16S
AUSTIN         CLEAR     62  37  39 S6        30.10R
BROWNSVILLE    CLEAR     65  59  81 SE12      30.17R
CORPUS CHRISTI PTCLDY    67  54  63 S18       30.13R
DALLAS FTW     PTCLDY    65  35  33 N5        30.08R
DEL RIO        CLEAR     76  25  15 SE6       30.07R
EL PASO        CLEAR     67  14  13 SW7       30.21S
HOUSTON INT    PTCLDY    70  48  45 S6        30.15R
LUBBOCK        PTCLDY    57  25  29 E3        30.18R
SAN ANGELO     CLEAR     71  20  14 W6        30.10R
SAN ANTONIO    PTCLDY    68  34  28 CALM      30.11R
WACO           CLEAR     68  41  37 S13       30.06R
WICHITA FALLS  NOT AVBL
$$
...OTHER LOCATIONS IN NEW MEXICO...

CITY           SKY/WX    TMP DP  RH WIND       PRES   REMARKS
ALAMAGORDO     CLEAR     63   9  12 NW8       30.22R
ALBUQUERQUE    PTCLDY    62  12  14 NW13      30.28R
CANNON AFB     CLEAR     54  22  29 SE2       30.18S
CLOVIS         CLEAR     54  18  24 SE6       30.20R
HOLLOMAN AFB   CLEAR     63  10  13 N7        30.20R
ROSWELL        CLEAR     61  16  17 S5        30.17R
RUIDOSO          N/A     54   0  11 W7        30.34R
SANTA FE       CLEAR     52  15  23 W5        30.29R
TRUTH OR CONSE PTCLDY    65  10  11 SE3       30.25R
TUCUMCARI      CLOUDY    57  13  17 S7        30.14R
$$



USA.gov is the U.S. government's official web portal to all federal, state and local government web resources and services.